TAM3558 SBFZ-SBPB

Flight info

Callsign TAM3558
Flight time 0h 38m
Altitude 30000
Route ISUPI
Aircraft A319/M-SDE3FGHIRWY/LB1

Departure

Time 2026-04-26 19:15
Airport Pinto Martins International Airport (SBFZ)

Arrival

Time 2026-04-26 19:54
Airport Parnaíba - Prefeito Doutor João Silva Filho International Airport (SBPB)
Time Latitude Longitude Altitude Speed Heading
2026-04-26 19:03 -3.77815 -38.53488 81 ft 0 kts 195°
2026-04-26 19:08 -3.77800 -38.53483 81 ft 2 kts 195°
2026-04-26 19:08 -3.77785 -38.53479 83 ft 2 kts 195°
2026-04-26 19:09 -3.77770 -38.53475 85 ft 2 kts 195°
2026-04-26 19:09 -3.77754 -38.53470 82 ft 2 kts 195°
2026-04-26 19:09 -3.77739 -38.53465 81 ft 2 kts 237°
2026-04-26 19:09 -3.77733 -38.53449 82 ft 2 kts 285°
2026-04-26 19:10 -3.77737 -38.53434 84 ft 2 kts 281°
2026-04-26 19:10 -3.77738 -38.53429 85 ft 0 kts 284°
2026-04-26 19:11 -3.77735 -38.53438 81 ft 3 kts 286°
2026-04-26 19:11 -3.77728 -38.53467 81 ft 6 kts 284°
2026-04-26 19:11 -3.77711 -38.53528 81 ft 13 kts 286°
2026-04-26 19:12 -3.77685 -38.53625 82 ft 16 kts 285°
2026-04-26 19:12 -3.77652 -38.53746 86 ft 20 kts 286°
2026-04-26 19:12 -3.77616 -38.53882 85 ft 21 kts 285°
2026-04-26 19:12 -3.77579 -38.54019 88 ft 21 kts 285°
2026-04-26 19:13 -3.77540 -38.54163 87 ft 22 kts 285°
2026-04-26 19:13 -3.77507 -38.54298 90 ft 19 kts 283°
2026-04-26 19:13 -3.77421 -38.54379 92 ft 18 kts 17°
2026-04-26 19:13 -3.77341 -38.54337 92 ft 11 kts 69°
2026-04-26 19:14 -3.77352 -38.54295 91 ft 0 kts 105°
2026-04-26 19:14 -3.77354 -38.54285 92 ft 12 kts 106°
2026-04-26 19:14 -3.77443 -38.53956 88 ft 84 kts 105°
2026-04-26 19:14 -3.77568 -38.53491 83 ft 124 kts 105°
2026-04-26 19:15 -3.77910 -38.52221 557 ft 146 kts 105°
2026-04-26 19:15 -3.78192 -38.51237 1211 ft 147 kts 106°
2026-04-26 19:15 -3.78476 -38.50230 1659 ft 161 kts 105°
2026-04-26 19:15 -3.78802 -38.49073 1950 ft 184 kts 107°
2026-04-26 19:16 -3.79002 -38.47726 2243 ft 213 kts 82°
2026-04-26 19:16 -3.78229 -38.46365 2629 ft 245 kts 41°
2026-04-26 19:16 -3.76570 -38.45690 3128 ft 274 kts
2026-04-26 19:16 -3.74735 -38.46141 4064 ft 281 kts 330°
2026-04-26 19:17 -3.73164 -38.47322 5070 ft 284 kts 319°
2026-04-26 19:17 -3.71668 -38.48637 6065 ft 288 kts 317°
2026-04-26 19:17 -3.70175 -38.49992 6978 ft 292 kts 317°
2026-04-26 19:17 -3.68662 -38.51375 7859 ft 296 kts 317°
2026-04-26 19:18 -3.67131 -38.52773 8758 ft 298 kts 317°
2026-04-26 19:18 -3.65677 -38.54220 9683 ft 300 kts 309°
2026-04-26 19:18 -3.64528 -38.56004 10261 ft 314 kts 295°
2026-04-26 19:18 -3.63647 -38.58085 10657 ft 331 kts 292°
2026-04-26 19:19 -3.62757 -38.60244 11301 ft 337 kts 292°
2026-04-26 19:19 -3.61854 -38.62431 12015 ft 342 kts 292°
2026-04-26 19:19 -3.60938 -38.64647 12734 ft 345 kts 292°
2026-04-26 19:19 -3.60023 -38.66851 13446 ft 349 kts 292°
2026-04-26 19:20 -3.59078 -38.69110 14085 ft 352 kts 293°
2026-04-26 19:20 -3.58447 -38.70615 14495 ft 355 kts 293°
2026-04-26 19:20 -3.57162 -38.73686 15303 ft 359 kts 292°
2026-04-26 19:20 -3.56205 -38.75975 15944 ft 361 kts 292°
2026-04-26 19:21 -3.55229 -38.78309 16569 ft 363 kts 292°
2026-04-26 19:21 -3.54249 -38.80656 17160 ft 367 kts 292°
2026-04-26 19:21 -3.53256 -38.83033 17743 ft 371 kts 292°
2026-04-26 19:21 -3.52267 -38.85394 18300 ft 374 kts 293°
2026-04-26 19:22 -3.51256 -38.87810 18790 ft 378 kts 293°
2026-04-26 19:22 -3.50232 -38.90251 19265 ft 382 kts 293°
2026-04-26 19:22 -3.49199 -38.92715 19749 ft 385 kts 293°
2026-04-26 19:22 -3.48157 -38.95204 20210 ft 390 kts 294°
2026-04-26 19:23 -3.47106 -38.97719 20701 ft 393 kts 293°
2026-04-26 19:23 -3.46043 -39.00259 21163 ft 397 kts 294°
2026-04-26 19:23 -3.44970 -39.02818 21632 ft 400 kts 294°
2026-04-26 19:23 -3.43902 -39.05367 22087 ft 404 kts 294°
2026-04-26 19:24 -3.42812 -39.07971 22551 ft 407 kts 294°
2026-04-26 19:24 -3.41715 -39.10593 23021 ft 410 kts 294°
2026-04-26 19:24 -3.39493 -39.15904 23870 ft 416 kts 294°
2026-04-26 19:25 -3.38367 -39.18587 24255 ft 419 kts 294°
2026-04-26 19:25 -3.37984 -39.19497 24385 ft 420 kts 294°
2026-04-26 19:25 -3.36092 -39.24005 25010 ft 425 kts 294°
2026-04-26 19:25 -3.34949 -39.26739 25380 ft 427 kts 294°
2026-04-26 19:26 -3.33797 -39.29492 25750 ft 430 kts 294°
2026-04-26 19:26 -3.32634 -39.32270 26108 ft 433 kts 294°
2026-04-26 19:26 -3.31468 -39.35054 26464 ft 436 kts 294°
2026-04-26 19:26 -3.30294 -39.37859 26833 ft 438 kts 294°
2026-04-26 19:27 -3.29297 -39.40749 27181 ft 441 kts 284°
2026-04-26 19:27 -3.28801 -39.43747 27524 ft 444 kts 275°
2026-04-26 19:27 -3.28816 -39.46887 27875 ft 447 kts 265°
2026-04-26 19:27 -3.29055 -39.49969 28214 ft 450 kts 265°
2026-04-26 19:28 -3.29287 -39.53102 28562 ft 452 kts 266°
2026-04-26 19:28 -3.29514 -39.56260 28915 ft 455 kts 266°
2026-04-26 19:28 -3.29741 -39.59427 29268 ft 457 kts 266°
2026-04-26 19:28 -3.29972 -39.62615 29644 ft 459 kts 266°
2026-04-26 19:29 -3.30204 -39.65810 29886 ft 461 kts 266°
2026-04-26 19:29 -3.30432 -39.68936 29930 ft 449 kts 266°
2026-04-26 19:29 -3.30654 -39.71999 29927 ft 434 kts 266°
2026-04-26 19:29 -3.30870 -39.74964 29927 ft 420 kts 266°
2026-04-26 19:30 -3.31293 -39.80741 29927 ft 413 kts 266°
2026-04-26 19:30 -3.31571 -39.84531 29927 ft 412 kts 266°
2026-04-26 19:31 -3.32122 -39.92152 29924 ft 411 kts 266°
2026-04-26 19:31 -3.32470 -39.96913 29925 ft 411 kts 266°
2026-04-26 19:32 -3.32884 -40.02616 29921 ft 411 kts 266°
2026-04-26 19:32 -3.33300 -40.08289 29919 ft 411 kts 266°
2026-04-26 19:33 -3.33716 -40.14004 29917 ft 411 kts 266°
2026-04-26 19:33 -3.34127 -40.19715 29917 ft 411 kts 266°
2026-04-26 19:34 -3.34538 -40.25390 29870 ft 412 kts 266°
2026-04-26 19:34 -3.34743 -40.28243 29451 ft 411 kts 265°
2026-04-26 19:34 -3.34951 -40.31092 29026 ft 410 kts 265°
2026-04-26 19:35 -3.35157 -40.33929 28621 ft 408 kts 265°
2026-04-26 19:35 -3.35365 -40.36760 28227 ft 406 kts 265°
2026-04-26 19:35 -3.35571 -40.39576 27831 ft 404 kts 265°
2026-04-26 19:35 -3.35769 -40.42339 27442 ft 402 kts 265°
2026-04-26 19:36 -3.35969 -40.45124 27032 ft 400 kts 266°
2026-04-26 19:36 -3.36102 -40.47000 26756 ft 398 kts 266°
2026-04-26 19:36 -3.36324 -40.50651 26219 ft 395 kts 270°
2026-04-26 19:36 -3.36057 -40.53380 25818 ft 393 kts 282°
2026-04-26 19:37 -3.35332 -40.56014 25415 ft 391 kts 287°
2026-04-26 19:37 -3.34535 -40.58612 24988 ft 389 kts 287°
2026-04-26 19:37 -3.33747 -40.61197 24573 ft 392 kts 287°
2026-04-26 19:37 -3.32933 -40.63865 24127 ft 419 kts 287°
2026-04-26 19:38 -3.32054 -40.66742 23647 ft 445 kts 287°
2026-04-26 19:38 -3.31121 -40.69790 23084 ft 469 kts 287°
2026-04-26 19:38 -3.30147 -40.72977 22549 ft 485 kts 287°
2026-04-26 19:38 -3.29160 -40.76211 22000 ft 486 kts 287°
2026-04-26 19:39 -3.28176 -40.79432 21457 ft 483 kts 287°
2026-04-26 19:39 -3.27198 -40.82637 20907 ft 479 kts 287°
2026-04-26 19:39 -3.26242 -40.85775 20378 ft 475 kts 287°
2026-04-26 19:39 -3.25283 -40.88917 19837 ft 470 kts 287°
2026-04-26 19:40 -3.24330 -40.92030 19305 ft 465 kts 287°
2026-04-26 19:40 -3.23386 -40.95117 18774 ft 461 kts 287°
2026-04-26 19:40 -3.22454 -40.98174 18248 ft 456 kts 287°
2026-04-26 19:40 -3.21534 -41.01197 17674 ft 451 kts 287°
2026-04-26 19:41 -3.20623 -41.04190 17164 ft 447 kts 287°
2026-04-26 19:41 -3.19717 -41.07159 16656 ft 443 kts 287°
2026-04-26 19:41 -3.18831 -41.10060 16152 ft 439 kts 287°
2026-04-26 19:41 -3.18231 -41.12028 15813 ft 437 kts 287°
2026-04-26 19:42 -3.17058 -41.15860 15154 ft 432 kts 287°
2026-04-26 19:42 -3.16180 -41.18727 14659 ft 428 kts 287°
2026-04-26 19:42 -3.15313 -41.21567 14168 ft 424 kts 287°
2026-04-26 19:42 -3.14453 -41.24379 13674 ft 420 kts 287°
2026-04-26 19:43 -3.13611 -41.27127 13168 ft 416 kts 287°
2026-04-26 19:43 -3.12763 -41.29897 12684 ft 415 kts 287°
2026-04-26 19:43 -3.11921 -41.32657 12199 ft 412 kts 287°
2026-04-26 19:43 -3.11087 -41.35400 11714 ft 410 kts 287°
2026-04-26 19:44 -3.10268 -41.38099 11237 ft 408 kts 287°
2026-04-26 19:44 -3.09443 -41.40807 10763 ft 405 kts 286°
2026-04-26 19:44 -3.08628 -41.43454 10494 ft 387 kts 287°
2026-04-26 19:44 -3.07859 -41.45941 10354 ft 359 kts 286°
2026-04-26 19:45 -3.07156 -41.48230 10221 ft 330 kts 286°
2026-04-26 19:45 -3.06507 -41.50348 10088 ft 307 kts 286°
2026-04-26 19:45 -3.05900 -41.52326 9696 ft 297 kts 286°
2026-04-26 19:45 -3.05294 -41.54300 8978 ft 298 kts 286°
2026-04-26 19:46 -3.04680 -41.56304 8197 ft 301 kts 286°
2026-04-26 19:46 -3.04072 -41.58298 7705 ft 296 kts 285°
2026-04-26 19:46 -3.03478 -41.60251 7338 ft 292 kts 285°
2026-04-26 19:46 -3.02887 -41.62187 6976 ft 289 kts 286°
2026-04-26 19:47 -3.02307 -41.64088 6652 ft 289 kts 286°
2026-04-26 19:47 -3.01909 -41.65388 6391 ft 289 kts 285°
2026-04-26 19:47 -3.01131 -41.67933 5904 ft 287 kts 286°
2026-04-26 19:47 -3.00544 -41.69842 5549 ft 285 kts 286°
2026-04-26 19:48 -2.99966 -41.71724 5190 ft 278 kts 286°
2026-04-26 19:48 -2.99408 -41.73546 4858 ft 268 kts 286°
2026-04-26 19:48 -2.98879 -41.75277 4534 ft 259 kts 287°
2026-04-26 19:48 -2.98470 -41.76995 4210 ft 248 kts 272°
2026-04-26 19:49 -2.98447 -41.78684 3894 ft 238 kts 268°
2026-04-26 19:49 -2.98480 -41.80314 3583 ft 230 kts 267°
2026-04-26 19:49 -2.98291 -41.81877 3272 ft 225 kts 290°
2026-04-26 19:49 -2.97480 -41.83156 2963 ft 217 kts 317°
2026-04-26 19:50 -2.96239 -41.83928 2697 ft 203 kts 342°
2026-04-26 19:50 -2.94903 -41.84117 2365 ft 187 kts
2026-04-26 19:50 -2.93702 -41.83810 2050 ft 172 kts 26°
2026-04-26 19:50 -2.92762 -41.83156 1773 ft 156 kts 44°
2026-04-26 19:51 -2.92168 -41.82355 1700 ft 136 kts 60°
2026-04-26 19:51 -2.91821 -41.81493 1598 ft 133 kts 72°
2026-04-26 19:51 -2.91547 -41.80625 1337 ft 129 kts 71°
2026-04-26 19:51 -2.91296 -41.79762 1125 ft 128 kts 73°
2026-04-26 19:52 -2.91053 -41.78903 955 ft 130 kts 72°
2026-04-26 19:52 -2.90821 -41.78038 802 ft 129 kts 73°
2026-04-26 19:52 -2.90558 -41.77185 660 ft 127 kts 71°
2026-04-26 19:52 -2.90300 -41.76345 496 ft 128 kts 72°
2026-04-26 19:53 -2.90056 -41.75499 320 ft 127 kts 71°
2026-04-26 19:53 -2.89809 -41.74655 145 ft 126 kts 70°
2026-04-26 19:53 -2.89567 -41.73833 37 ft 121 kts 71°
2026-04-26 19:53 -2.89361 -41.73138 24 ft 84 kts 73°
2026-04-26 19:54 -2.89251 -41.72765 24 ft 18 kts 73°
2026-04-26 19:54 -2.89226 -41.72640 23 ft 14 kts 87°
2026-04-26 19:54 -2.89210 -41.72637 23 ft 7 kts 250°
2026-04-26 19:54 -2.89227 -41.72689 23 ft 9 kts 255°
2026-04-26 19:55 -2.89248 -41.72757 22 ft 12 kts 254°
2026-04-26 19:55 -2.89273 -41.72843 22 ft 14 kts 254°
2026-04-26 19:55 -2.89304 -41.72948 23 ft 17 kts 253°
2026-04-26 19:55 -2.89340 -41.73058 26 ft 14 kts 241°
2026-04-26 19:56 -2.89406 -41.73071 23 ft 10 kts 161°
2026-04-26 19:56 -2.89455 -41.73057 23 ft 8 kts 171°
2026-04-26 19:56 -2.89473 -41.73019 23 ft 8 kts 75°
2026-04-26 19:56 -2.89466 -41.72996 25 ft 0 kts 72°